Change the Weather History Date:

Thursday, June 20, 2013

  Actual Average Record
Temperature  
Mean Temperature 46 °F -  
Max Temperature 50 °F 43 °F 51 °F (2004)
Min Temperature 41 °F 36 °F 33 °F (1999)
Degree Days  
Heating Degree Days 20    
Moisture  
Dew Point 41 °F    
Average Humidity 85    
Maximum Humidity 93    
Minimum Humidity 76    
Precipitation  
Precipitation 0.00 in - - ()
Sea Level Pressure  
Sea Level Pressure 29.64 in    
Wind  
Wind Speed 18 mph (SE)    
Max Wind Speed 33 mph    
Max Gust Speed 32 mph    
Visibility 10 miles    
Events      
Averages and records for this station are not official NWS values.
T = Trace of Precipitation, MM = Missing Value Source: NWS Daily Summary

Daily Weather History Graph

Daily Weather History Graph

Search for Another Location

Airport or City:

Trip Planner

Search our weather history database for the weather conditions in past years. The results will help you decide how hot, cold, wet, or windy it might be!

Date:

Astronomy

Jun. 20, 2013 Rise Set
Actual Time 5:03 AM AKDT 1:53 AM AKDT
Civil Twilight Sun does not rise Sun does not rise
Nautical Twilight Sun does not rise Sun does not rise
Astronomical Twilight Sun does not rise Sun does not rise
Moon 10:11 PM AKDT (6/20) 3:57 AM AKDT (6/20)
Length of Visible Light 24h 00m
Length of Day
20h 50m
Waxing Gibbous, 90% of the Moon is Illuminated
Jun 20
Waxing Gibbous
Jun 23
Full
Jun 29
Last Quarter
Jul 7
New
Jul 15
First Quarter

Hourly Weather History & Observations

Time (AKDT) Temp. Windchill Dew Point Humidity Pressure Visibility Wind Dir Wind Speed Gust Speed Precip Events Conditions
12:16 AM 42.8 °F 36.6 °F 37.4 °F 81% 29.56 in 10.0 mi North 11.5 mph - N/A   Clear
12:36 AM 42.8 °F 37.5 °F 39.2 °F 87% 29.56 in 10.0 mi NNE 9.2 mph - N/A   Clear
12:56 AM 42.8 °F 37.0 °F 37.4 °F 81% 29.56 in 10.0 mi North 10.4 mph - N/A   Clear
1:16 AM 42.8 °F 37.0 °F 39.2 °F 87% 29.55 in 10.0 mi North 10.4 mph - N/A   Clear
1:36 AM 42.8 °F 39.3 °F 37.4 °F 81% 29.56 in 10.0 mi North 5.8 mph - N/A   Clear
1:56 AM 41.0 °F 35.2 °F 37.4 °F 87% 29.56 in 8.0 mi NE 9.2 mph - N/A   Clear
2:16 AM 42.8 °F 36.6 °F 39.2 °F 87% 29.55 in 10.0 mi NNE 11.5 mph - N/A   Clear
2:36 AM 42.8 °F 39.3 °F 39.2 °F 87% 29.56 in 10.0 mi NE 5.8 mph - N/A   Clear
2:56 AM 44.6 °F - 39.2 °F 81% 29.55 in 10.0 mi Calm Calm - N/A   Clear
3:16 AM 42.8 °F - 37.4 °F 81% 29.55 in 10.0 mi Calm Calm - N/A   Clear
3:36 AM 46.4 °F 41.1 °F 42.8 °F 87% 29.55 in 10.0 mi SSE 11.5 mph - N/A   Clear
3:56 AM 44.6 °F 39.2 °F 39.2 °F 81% 29.55 in 10.0 mi South 10.4 mph - N/A   Clear
4:16 AM 44.6 °F 37.2 °F 41.0 °F 87% 29.54 in 10.0 mi SE 17.3 mph - N/A   Clear
4:36 AM 44.6 °F 36.4 °F 41.0 °F 87% 29.54 in 10.0 mi SSE 20.7 mph - N/A   Clear
4:56 AM 44.6 °F 37.4 °F 39.2 °F 81% 29.55 in 10.0 mi South 16.1 mph - N/A   Clear
5:16 AM 42.8 °F 34.8 °F 39.2 °F 87% 29.56 in 10.0 mi SSE 17.3 mph - N/A   Clear
5:36 AM 42.8 °F 34.3 °F 39.2 °F 87% 29.56 in 10.0 mi SE 19.6 mph - N/A   Partly Cloudy
5:56 AM 42.8 °F 32.5 °F 39.2 °F 87% 29.56 in 8.0 mi SSE 28.8 mph - N/A   Partly Cloudy
6:16 AM 42.8 °F 32.5 °F 39.2 °F 87% 29.55 in 6.0 mi SSE 28.8 mph - N/A   Mostly Cloudy
6:36 AM 42.8 °F 32.5 °F 39.2 °F 87% 29.56 in 6.0 mi SSE 28.8 mph - N/A   Overcast
6:56 AM 42.8 °F 32.5 °F 39.2 °F 87% 29.56 in 5.0 mi SSE 28.8 mph - N/A   Overcast
7:16 AM 42.8 °F 32.9 °F 39.2 °F 87% 29.57 in 5.0 mi SSE 26.5 mph - N/A   Overcast
7:36 AM 42.8 °F 33.5 °F 39.2 °F 87% 29.58 in 5.0 mi SSE 23.0 mph 27.6 mph N/A   Overcast
7:56 AM 42.8 °F 34.8 °F 39.2 °F 87% 29.59 in 5.0 mi SSE 17.3 mph 24.2 mph N/A   Overcast
8:16 AM 42.8 °F 34.5 °F 39.2 °F 87% 29.59 in 6.0 mi SSE 18.4 mph 23.0 mph N/A   Overcast
8:36 AM 42.8 °F 33.1 °F 39.2 °F 87% 29.60 in 10.0 mi SSE 25.3 mph - N/A   Overcast
8:56 AM 42.8 °F 32.9 °F 39.2 °F 87% 29.60 in 10.0 mi SSE 26.5 mph 29.9 mph N/A   Overcast
9:16 AM 42.8 °F 35.1 °F 39.2 °F 87% 29.61 in 10.0 mi South 16.1 mph 26.5 mph N/A   Overcast
9:36 AM 42.8 °F 34.8 °F 39.2 °F 87% 29.62 in 10.0 mi SSE 17.3 mph 21.9 mph N/A   Overcast
9:56 AM 42.8 °F 33.1 °F 41.0 °F 93% 29.61 in 10.0 mi SSE 25.3 mph 31.1 mph N/A   Overcast
10:16 AM 44.6 °F 36.1 °F 41.0 °F 87% 29.62 in 10.0 mi SSE 21.9 mph - N/A   Overcast
10:36 AM 44.6 °F 35.5 °F 41.0 °F 87% 29.63 in 10.0 mi SSE 25.3 mph - N/A   Overcast
10:56 AM 44.6 °F 34.9 °F 41.0 °F 87% 29.63 in 10.0 mi SE 28.8 mph - N/A   Overcast
11:16 AM 44.6 °F 35.3 °F 41.0 °F 87% 29.64 in 10.0 mi SSE 26.5 mph - N/A   Overcast
11:36 AM 44.6 °F 35.5 °F 41.0 °F 87% 29.65 in 10.0 mi SSE 25.3 mph - N/A   Overcast
11:56 AM 44.6 °F 37.2 °F 41.0 °F 87% 29.66 in 10.0 mi South 17.3 mph 25.3 mph N/A   Overcast
12:16 PM 44.6 °F 36.4 °F 41.0 °F 87% 29.67 in 10.0 mi SSE 20.7 mph 26.5 mph N/A   Overcast
12:36 PM 44.6 °F 36.6 °F 39.2 °F 81% 29.66 in 10.0 mi SE 19.6 mph 23.0 mph N/A   Overcast
12:56 PM 44.6 °F 35.3 °F 39.2 °F 81% 29.66 in 10.0 mi SE 26.5 mph 31.1 mph N/A   Overcast
1:16 PM 44.6 °F 34.9 °F 41.0 °F 87% 29.65 in 10.0 mi SE 28.8 mph - N/A   Overcast
1:36 PM 44.6 °F 36.1 °F 41.0 °F 87% 29.67 in 10.0 mi SE 21.9 mph 28.8 mph N/A   Overcast
1:56 PM 46.4 °F 37.7 °F 41.0 °F 81% 29.67 in 10.0 mi SE 26.5 mph 29.9 mph N/A   Overcast
2:16 PM 44.6 °F 35.3 °F 41.0 °F 87% 29.68 in 10.0 mi SE 26.5 mph 29.9 mph N/A   Overcast
2:36 PM 46.4 °F 37.4 °F 41.0 °F 81% 29.67 in 10.0 mi SE 28.8 mph - N/A   Overcast
2:56 PM 46.4 °F 37.5 °F 41.0 °F 81% 29.67 in 10.0 mi SE 27.6 mph 32.2 mph N/A   Scattered Clouds
3:16 PM 46.4 °F 37.2 °F 41.0 °F 81% 29.68 in 10.0 mi SE 29.9 mph - N/A   Partly Cloudy
3:36 PM 46.4 °F 37.7 °F 41.0 °F 81% 29.69 in 10.0 mi SE 26.5 mph - N/A   Scattered Clouds
3:56 PM 46.4 °F 37.7 °F 41.0 °F 81% 29.69 in 10.0 mi SE 26.5 mph - N/A   Scattered Clouds
4:16 PM 48.2 °F - 42.8 °F 82% 29.70 in 10.0 mi SSE 25.3 mph - N/A   Mostly Cloudy
4:36 PM 46.4 °F 38.1 °F 42.8 °F 87% 29.70 in 10.0 mi SSE 24.2 mph - N/A   Overcast
4:56 PM 48.2 °F - 42.8 °F 82% 29.70 in 10.0 mi SE 20.7 mph - N/A   Overcast
5:16 PM 48.2 °F - 42.8 °F 82% 29.71 in 10.0 mi SE 27.6 mph 31.1 mph N/A   Overcast
5:36 PM 46.4 °F 37.9 °F 42.8 °F 87% 29.71 in 10.0 mi SE 25.3 mph - N/A   Mostly Cloudy
5:56 PM 46.4 °F 38.3 °F 41.0 °F 81% 29.72 in 10.0 mi SE 23.0 mph 27.6 mph N/A   Mostly Cloudy
6:16 PM 46.4 °F 39.2 °F 41.0 °F 81% 29.72 in 10.0 mi SE 18.4 mph - N/A   Overcast
6:36 PM 46.4 °F 38.7 °F 42.8 °F 87% 29.72 in 10.0 mi SE 20.7 mph 25.3 mph N/A   Overcast
6:56 PM 46.4 °F 38.5 °F 42.8 °F 87% 29.71 in 10.0 mi SE 21.9 mph - N/A   Overcast
7:16 PM 48.2 °F - 42.8 °F 82% 29.71 in 10.0 mi SE 21.9 mph - N/A   Overcast
7:36 PM 48.2 °F - 42.8 °F 82% 29.71 in 10.0 mi SE 20.7 mph - N/A   Overcast
7:56 PM 48.2 °F - 44.6 °F 87% 29.71 in 10.0 mi SE 20.7 mph 27.6 mph N/A   Overcast
8:16 PM 48.2 °F - 44.6 °F 87% 29.71 in 10.0 mi SE 21.9 mph - N/A   Overcast
8:36 PM 50.0 °F - 44.6 °F 82% 29.71 in 10.0 mi SE 20.7 mph 25.3 mph N/A   Overcast
8:56 PM 48.2 °F - 44.6 °F 87% 29.72 in 10.0 mi SE 20.7 mph - N/A   Overcast
9:16 PM 48.2 °F - 42.8 °F 82% 29.71 in 10.0 mi SE 20.7 mph - N/A   Scattered Clouds
9:36 PM 48.2 °F - 44.6 °F 87% 29.71 in 10.0 mi SE 23.0 mph - N/A   Clear
9:56 PM 48.2 °F - 42.8 °F 82% 29.70 in 10.0 mi ESE 21.9 mph - N/A   Clear
10:16 PM 50.0 °F - 42.8 °F 76% 29.70 in 10.0 mi SE 24.2 mph - N/A   Clear
10:36 PM 48.2 °F - 42.8 °F 82% 29.70 in 10.0 mi ESE 24.2 mph - N/A   Clear
10:56 PM 48.2 °F - 42.8 °F 82% 29.70 in 10.0 mi SE 23.0 mph - N/A   Clear
11:16 PM 48.2 °F - 42.8 °F 82% 29.70 in 10.0 mi ESE 25.3 mph - N/A   Clear
11:36 PM 46.4 °F 37.9 °F 42.8 °F 87% 29.71 in 10.0 mi SE 25.3 mph 28.8 mph N/A   Mostly Cloudy
11:56 PM 46.4 °F 36.7 °F 42.8 °F 87% 29.71 in 10.0 mi SE 33.4 mph - N/A   Overcast